Location: Carrer del Canonge
(41.4901°N, 2.2931°E)
Time: 17:57:33
(UTC+00:00)

SPOT 3 Rocket - Pass Details

Date: 25 June 2021
Orbit: 779 x 794 km, 98.7° (Epoch: 29 July)

Event Time Altitude Azimuth Distance (km) Brightness Sun altitude
Exits shadow 20:15:26 - 152° (SSE) 2,542 5.6 -7.8°
Reaches altitude 10° 20:15:57 10° 151° (SSE) 2,338 5.4 -7.9°
Maximum altitude 20:21:01 60° 72° (ENE) 902 3.7 -8.6°
Drops below altitude 10° 20:26:09 10° 354° (N) 2,364 6.8 -9.3°
Sets 20:28:30 0° 351° (N) 3,299 7.7 -9.6°
